sat.trackr.live / text

‹ back to catalog

ONEWEB-0474

NORAD 51654 · 2022-012AJ

PAYLOAD ACTIVE UNKNOWN

§ Identity

Operator
Country
UK
Launch date
2022-02-10
Launch site
FRGUI
Launch vehicle
Mass (kg)
RCS (m²)

Purposes: comms

External: N2YO · Heavens-Above · Gunter

§ Orbital elements

Epoch: 2026-05-25T04:27:00.506592Z

Period
109.89 min
Inclination
87.8859°
Eccentricity
0.0001950
Mean motion
13.10371072 rev/d
Perigee alt
1,220.2 km
Apogee alt
1,223.2 km
Semi-major
7,599.9 km
B*
-7.9458e-4
RAAN
40.8379°
Arg perigee
70.9253°
Mean anomaly
289.2085°
Rev number
20,628

§ Raw data

ONEWEB-04741 51654U 22012AJ  26145.18542253 -.00000265  00000+0 -79458-3 0  99962 51654  87.8859  40.8379 0001950  70.9253 289.2085 13.10371072206287

JSON: /api/v1/satellites/51654 · /tle

For live sub-satellite position, see the globe view (requires WebGL).

§ Visibility from observer

Set your observer location to see the next 7 days of passes ≥ 10°. The values pass through the URL so the page stays shareable.

No JS? Fill the form by hand. The geolocation button needs JavaScript.